• In Denmark
  • List of Countries
  • For 7 days
  • Water Temperature
  • Satellite Maps
  • Weather Map
  • Weather Widgets
  • user-avatar
    Login

    Hourly Weather Havana

    Today, 17 February, Saturday

    Time Temperature Precipitation Wind Pressure Humidity
    00:00 +23°C° 0.1 mm 5 mps 765 mmHg 86%
    01:00 +22°C° 0 mm 5 mps 765 mmHg 85%
    02:00 +22°C° 0 mm 5 mps 765 mmHg 86%
    03:00 +22°C° 0 mm 5 mps 764 mmHg 87%
    04:00 +21°C° 0 mm 5 mps 764 mmHg 89%
    05:00 +21°C° 0 mm 5 mps 764 mmHg 89%
    06:00 +21°C° 0 mm 5 mps 765 mmHg 90%
    07:00 +21°C° 0 mm 4 mps 765 mmHg 90%
    08:00 +23°C° 0 mm 5 mps 765 mmHg 80%
    09:00 +26°C° 0 mm 5 mps 765 mmHg 70%
    10:00 +28°C° 0 mm 5 mps 765 mmHg 60%
    11:00 +29°C° 0 mm 5 mps 765 mmHg 54%
    12:00 +30°C° 0 mm 4 mps 765 mmHg 48%
    13:00 +33°C° 0 mm 4 mps 765 mmHg 41%
    14:00 +33°C° 0 mm 4 mps 764 mmHg 42%
    15:00 +33°C° 0 mm 4 mps 764 mmHg 43%
    16:00 +33°C° 0 mm 4 mps 764 mmHg 45%
    17:00 +30°C° 0 mm 5 mps 764 mmHg 55%
    18:00 +28°C° 0 mm 5 mps 764 mmHg 65%
    19:00 +26°C° 0 mm 5 mps 764 mmHg 76%
    20:00 +26°C° 0.1 mm 5 mps 765 mmHg 79%
    21:00 +25°C° 0.1 mm 5 mps 765 mmHg 81%
    22:00 +25°C° 0.1 mm 5 mps 765 mmHg 84%
    23:00 +25°C° 0.1 mm 4 mps 765 mmHg 85%

    Tomorrow, 18 February, Sunday

    Time Temperature Precipitation Wind Pressure Humidity
    00:00 +23°C° 0.1 mm 4 mps 765 mmHg 86%
    01:00 +23°C° 0.1 mm 4 mps 765 mmHg 87%
    02:00 +23°C° 0.1 mm 4 mps 764 mmHg 88%
    03:00 +22°C° 0.1 mm 4 mps 764 mmHg 88%
    04:00 +22°C° 0.1 mm 4 mps 764 mmHg 89%
    05:00 +22°C° 0.1 mm 4 mps 764 mmHg 89%
    06:00 +22°C° 0.1 mm 4 mps 764 mmHg 90%
    07:00 +22°C° 0.1 mm 4 mps 765 mmHg 90%
    08:00 +25°C° 0.1 mm 4 mps 765 mmHg 80%
    09:00 +26°C° 0.1 mm 5 mps 765 mmHg 70%
    10:00 +28°C° 0.1 mm 5 mps 765 mmHg 60%
    11:00 +30°C° 0 mm 5 mps 765 mmHg 56%
    12:00 +32°C° 0 mm 6 mps 765 mmHg 51%
    13:00 +33°C° 0 mm 6 mps 765 mmHg 47%
    14:00 +33°C° 0 mm 7 mps 764 mmHg 47%
    15:00 +33°C° 0 mm 7 mps 764 mmHg 46%
    16:00 +33°C° 0 mm 8 mps 763 mmHg 46%
    17:00 +31°C° 0 mm 8 mps 763 mmHg 53%
    18:00 +28°C° 0 mm 7 mps 764 mmHg 60%
    19:00 +26°C° 0 mm 7 mps 764 mmHg 67%
    20:00 +26°C° 0 mm 7 mps 764 mmHg 70%
    21:00 +24°C° 0 mm 7 mps 765 mmHg 72%
    22:00 +24°C° 0 mm 7 mps 765 mmHg 75%
    23:00 +24°C° 0 mm 7 mps 765 mmHg 77%

    Day after tomorrow, 19 February, Monday

    Time Temperature Precipitation Wind Pressure Humidity
    00:00 +23°C° 0 mm 7 mps 765 mmHg 79%
    01:00 +23°C° 0 mm 6 mps 765 mmHg 81%
    02:00 +23°C° 0 mm 6 mps 764 mmHg 83%
    03:00 +23°C° 0 mm 6 mps 764 mmHg 84%
    04:00 +22°C° 0 mm 6 mps 764 mmHg 86%
    05:00 +22°C° 0.1 mm 6 mps 764 mmHg 86%
    06:00 +22°C° 0.1 mm 6 mps 764 mmHg 87%
    07:00 +22°C° 0.1 mm 6 mps 764 mmHg 87%
    08:00 +24°C° 0 mm 6 mps 765 mmHg 78%
    09:00 +27°C° 0 mm 7 mps 765 mmHg 68%
    10:00 +29°C° 0 mm 8 mps 766 mmHg 59%
    11:00 +30°C° 0 mm 7 mps 765 mmHg 53%
    12:00 +32°C° 0 mm 7 mps 765 mmHg 48%
    13:00 +34°C° 0 mm 7 mps 764 mmHg 42%
    14:00 +33°C° 0 mm 7 mps 764 mmHg 44%
    15:00 +33°C° 0 mm 7 mps 763 mmHg 46%
    16:00 +33°C° 0 mm 7 mps 763 mmHg 48%
    17:00 +30°C° 0.9 mm 7 mps 763 mmHg 58%
    18:00 +28°C° 0.9 mm 7 mps 763 mmHg 68%
    19:00 +26°C° 0.9 mm 7 mps 763 mmHg 78%
    20:00 +26°C° 1.2 mm 7 mps 764 mmHg 79%
    21:00 +26°C° 1.2 mm 7 mps 764 mmHg 81%
    22:00 +24°C° 1.2 mm 8 mps 764 mmHg 82%
    23:00 +24°C° 1 mm 8 mps 764 mmHg 83%

    20 February, Tuesday

    Time Temperature Precipitation Wind Pressure Humidity
    00:00 +24°C° 1 mm 8 mps 764 mmHg 85%
    01:00 +24°C° 1 mm 8 mps 764 mmHg 86%
    02:00 +24°C° 0.4 mm 8 mps 764 mmHg 86%
    03:00 +23°C° 0.4 mm 8 mps 764 mmHg 86%
    04:00 +23°C° 0.4 mm 7 mps 763 mmHg 85%
    05:00 +23°C° 0 mm 7 mps 764 mmHg 86%
    06:00 +22°C° 0 mm 7 mps 764 mmHg 86%
    07:00 +22°C° 0 mm 7 mps 765 mmHg 86%
    08:00 +24°C° 0 mm 8 mps 765 mmHg 79%
    09:00 +27°C° 0 mm 8 mps 766 mmHg 72%
    10:00 +28°C° 0 mm 8 mps 766 mmHg 64%
    11:00 +30°C° 0 mm 7 mps 766 mmHg 57%
    12:00 +33°C° 0 mm 7 mps 766 mmHg 51%
    13:00 +34°C° 0 mm 6 mps 765 mmHg 44%
    14:00 +34°C° 0 mm 6 mps 765 mmHg 43%
    15:00 +34°C° 0 mm 6 mps 764 mmHg 43%
    16:00 +35°C° 0 mm 6 mps 764 mmHg 42%
    17:00 +33°C° 0 mm 6 mps 764 mmHg 52%
    18:00 +30°C° 0 mm 6 mps 765 mmHg 61%
    19:00 +28°C° 0 mm 6 mps 765 mmHg 71%
    20:00 +27°C° 0 mm 6 mps 765 mmHg 73%
    21:00 +27°C° 0 mm 6 mps 766 mmHg 75%
    22:00 +26°C° 0 mm 6 mps 766 mmHg 77%
    23:00 +26°C° 0 mm 7 mps 766 mmHg 78%

    21 February, Wednesday

    Time Temperature Precipitation Wind Pressure Humidity
    00:00 +26°C° 0 mm 7 mps 766 mmHg 78%
    01:00 +26°C° 0 mm 8 mps 766 mmHg 78%
    02:00 +24°C° 0 mm 7 mps 766 mmHg 79%
    03:00 +24°C° 0 mm 7 mps 766 mmHg 80%
    04:00 +24°C° 0 mm 7 mps 765 mmHg 82%
    05:00 +23°C° 0 mm 7 mps 766 mmHg 83%
    06:00 +23°C° 0 mm 7 mps 766 mmHg 84%
    07:00 +23°C° 0 mm 7 mps 766 mmHg 85%
    08:00 +26°C° 0 mm 7 mps 767 mmHg 77%
    09:00 +27°C° 0 mm 8 mps 767 mmHg 70%
    10:00 +29°C° 0 mm 8 mps 767 mmHg 63%
    11:00 +31°C° 0 mm 8 mps 767 mmHg 58%
    12:00 +33°C° 0 mm 8 mps 767 mmHg 53%
    13:00 +34°C° 0 mm 8 mps 766 mmHg 49%
    14:00 +34°C° 0 mm 8 mps 766 mmHg 48%
    15:00 +34°C° 0 mm 8 mps 765 mmHg 47%
    16:00 +33°C° 0 mm 8 mps 765 mmHg 47%
    17:00 +32°C° 0 mm 8 mps 765 mmHg 53%
    18:00 +29°C° 0 mm 7 mps 765 mmHg 60%
    19:00 +27°C° 0 mm 7 mps 765 mmHg 67%
    20:00 +27°C° 0 mm 7 mps 766 mmHg 70%
    21:00 +26°C° 0 mm 7 mps 766 mmHg 73%
    22:00 +26°C° 0 mm 7 mps 766 mmHg 76%
    23:00 +26°C° 0 mm 7 mps 766 mmHg 77%

    22 February, Thursday

    Time Temperature Precipitation Wind Pressure Humidity
    00:00 +26°C° 0 mm 7 mps 766 mmHg 78%
    01:00 +24°C° 0 mm 7 mps 766 mmHg 80%
    02:00 +24°C° 0 mm 7 mps 766 mmHg 81%
    03:00 +24°C° 0 mm 6 mps 766 mmHg 83%
    04:00 +23°C° 0 mm 6 mps 765 mmHg 85%
    05:00 +23°C° 0 mm 6 mps 766 mmHg 85%
    06:00 +23°C° 0 mm 6 mps 766 mmHg 86%
    07:00 +23°C° 0 mm 6 mps 766 mmHg 86%
    08:00 +26°C° 0 mm 6 mps 766 mmHg 78%
    09:00 +28°C° 0 mm 7 mps 767 mmHg 70%
    10:00 +30°C° 0 mm 7 mps 767 mmHg 62%
    11:00 +32°C° 0 mm 7 mps 767 mmHg 56%
    12:00 +33°C° 0 mm 6 mps 766 mmHg 51%
    13:00 +34°C° 0 mm 6 mps 766 mmHg 45%
    14:00 +34°C° 0 mm 6 mps 765 mmHg 48%
    15:00 +33°C° 0 mm 7 mps 765 mmHg 51%
    16:00 +32°C° 0 mm 7 mps 764 mmHg 53%
    17:00 +30°C° 0.1 mm 7 mps 765 mmHg 59%
    18:00 +28°C° 0.1 mm 7 mps 765 mmHg 65%
    19:00 +27°C° 0.1 mm 7 mps 765 mmHg 71%
    20:00 +26°C° 0 mm 7 mps 765 mmHg 72%
    21:00 +26°C° 0 mm 7 mps 766 mmHg 72%
    22:00 +24°C° 0 mm 7 mps 766 mmHg 73%
    23:00 +24°C° 0 mm 7 mps 766 mmHg 75%
    Show more